Weather reports worldwide

Advertisment
Magilligan, United Kingdom (3907): temperature & dewpoint: 16.02.2019 01:00:00 - 22.02.2019 01:00:00 (GMT)Magilligan, United Kingdom (3907): temperature -20cm & temperature -100cm: 16.02.2019 01:00:00 - 22.02.2019 01:00:00 (GMT)Magilligan, United Kingdom (3907): wind speed & gusts: 16.02.2019 01:00:00 - 22.02.2019 01:00:00 (GMT)Magilligan, United Kingdom (3907): wind direction: 16.02.2019 01:00:00 - 22.02.2019 01:00:00 (GMT)Magilligan, United Kingdom (3907): reduced air pressure: 16.02.2019 01:00:00 - 22.02.2019 01:00:00 (GMT)Magilligan, United Kingdom (3907): visibility: 16.02.2019 01:00:00 - 22.02.2019 01:00:00 (GMT)Magilligan, United Kingdom (3907): sunshine duration: 16.02.2019 01:00:00 - 22.02.2019 01:00:00 (GMT)Magilligan, United Kingdom (3907): precipitation: 16.02.2019 01:00:00 - 22.02.2019 01:00:00 (GMT)
Date & Time tt [°C] td [°C] tt -20cm [°C] tt -100cm [°C] ff [km/h] ff [kn] fx [km/h] fx [kn] dd ppp [hPa] vv [km] sd [min] rr [mm]
22.02.2019 01:00:00 11,7 8,0 - - 48 26 72 39 S 1020,4 23 0 0,0
22.02.2019 00:00:00 10,8 7,6 - - 54 29 70 38 S 1019,4 23 - 0,0
21.02.2019 23:00:00 11,1 7,5 - - 31 17 55 30 S 1020,0 26 0 0,0
21.02.2019 22:00:00 10,6 6,9 - - 26 14 48 26 S 1019,9 23 0 0,0
21.02.2019 21:00:00 10,3 7,0 - - 13 7 - - SW 1019,7 30 0 0,0
21.02.2019 20:00:00 10,6 6,9 - - 24 13 - - S 1019,4 26 0 0,0
21.02.2019 19:00:00 11,2 7,1 - - 11 6 - - SW 1019,4 27 0 0,0
21.02.2019 18:00:00 12,1 7,3 - - 5 3 - - SW 1019,0 25 0 0,0
21.02.2019 17:00:00 12,8 8,0 - - 24 13 - - SSW 1018,4 25 0 0,0
21.02.2019 16:00:00 13,6 8,3 - - 26 14 46 25 S 1017,5 30 0 0,0
21.02.2019 15:00:00 14,1 9,3 - - 24 13 - - S 1017,1 26 0 0,0
21.02.2019 14:00:00 14,3 9,0 - - 31 17 52 28 S 1016,7 40 30 0,0
21.02.2019 13:00:00 14,9 10,1 - - 37 20 52 28 S 1016,5 30 18 0,0
21.02.2019 12:00:00 13,7 10,0 - - 31 17 50 27 S 1016,2 40 0 0,0
21.02.2019 11:00:00 13,5 9,9 - - 24 13 48 26 SSW 1015,8 40 6 0,0
21.02.2019 10:00:00 13,6 9,7 - - 41 22 55 30 S 1015,0 45 12 0,0
21.02.2019 09:00:00 13,0 9,8 9,9 7,5 34 18 46 25 SSW 1014,2 40 0 0,0
21.02.2019 08:00:00 13,1 9,9 - - 31 17 - - S 1013,0 30 0 0,0
21.02.2019 07:00:00 13,0 10,4 - - 29 16 - - S 1012,8 50 0 0,0
21.02.2019 06:00:00 12,9 10,6 - - 26 14 - - SSW 1012,0 50 0 0,0
21.02.2019 05:00:00 12,9 10,7 - - 26 14 - - S 1011,6 50 0 0,0
21.02.2019 04:00:00 13,1 10,7 - - 24 13 - - S 1011,2 50 0 0,0
21.02.2019 03:00:00 12,8 10,7 - - 22 12 - - SSW 1010,8 45 0 0,0
21.02.2019 02:00:00 12,6 10,5 - - 22 12 - - S 1010,5 50 0 0,0
21.02.2019 01:00:00 12,4 10,1 - - 18 10 - - SSW 1010,3 50 0 0,0
21.02.2019 00:00:00 12,2 10,1 - - 24 13 - - SSW 1009,6 50 - 0,0
20.02.2019 23:00:00 11,8 9,8 - - 16 9 - - SSW 1009,4 50 0 0,0
20.02.2019 22:00:00 11,5 9,0 - - 21 11 46 25 SSW 1008,8 50 0 0,0
20.02.2019 21:00:00 12,3 9,4 - - 24 13 - - S 1008,2 50 0 0,0
20.02.2019 20:00:00 12,4 9,4 - - 22 12 - - S 1008,4 50 0 0,0
20.02.2019 19:00:00 10,6 7,8 - - 11 6 - - S 1008,4 50 0 0,0
20.02.2019 18:00:00 11,7 8,5 - - 18 10 - - SSW 1007,6 50 6 0,0
20.02.2019 17:00:00 12,6 8,8 - - 24 13 - - SSW 1007,3 45 0 0,0
20.02.2019 16:00:00 13,2 10,0 - - 22 12 - - SW 1006,9 50 12 0,0
20.02.2019 15:00:00 12,0 10,2 - - 22 12 - - SSW 1006,6 50 0 -
20.02.2019 14:00:00 11,9 10,4 - - 28 15 - - SSW 1006,5 30 0 -
20.02.2019 13:00:00 12,5 9,9 - - 26 14 - - SSW 1006,3 50 0 0,0
20.02.2019 12:00:00 12,4 9,4 - - 37 20 59 32 SSW 1005,5 50 6 0,0
20.02.2019 11:00:00 12,3 9,2 - - 39 21 59 32 SSW 1004,4 50 18 0,0
20.02.2019 10:00:00 12,4 9,3 - - 42 23 61 33 SSW 1003,6 45 0 0,0
20.02.2019 09:00:00 11,7 9,0 9,0 7,5 39 21 55 30 S 1003,0 50 0 0,0
20.02.2019 08:00:00 11,3 8,7 - - 39 21 54 29 S 1002,7 30 0 0,0
20.02.2019 07:00:00 11,2 8,4 - - 35 19 48 26 S 1002,6 28 0 0,0
20.02.2019 06:00:00 11,2 8,4 - - 31 17 54 29 S 1002,7 45 0 0,0
20.02.2019 05:00:00 11,0 8,8 - - 34 18 50 27 SSW 1002,4 50 0 0,0
20.02.2019 04:00:00 11,0 9,0 - - 29 16 48 26 SSW 1002,7 50 0 0,0
20.02.2019 03:00:00 10,9 9,2 - - 28 15 46 25 SSW 1003,1 45 0 0,0
20.02.2019 02:00:00 11,0 9,1 - - 31 17 48 26 SSW 1003,3 50 0 0,0
20.02.2019 01:00:00 10,9 9,0 - - 26 14 - - SSW 1003,6 40 0 0,0
20.02.2019 00:00:00 10,6 8,9 - - 24 13 - - S 1003,5 45 - 0,0
19.02.2019 23:00:00 10,2 8,7 - - 26 14 - - S 1003,2 50 0 0,0
19.02.2019 22:00:00 9,7 8,5 - - 15 8 - - SSW 1003,3 50 0 0,0
19.02.2019 21:00:00 9,3 8,0 - - 21 11 - - SSW 1003,5 14 0 0,2
19.02.2019 20:00:00 9,1 7,7 - - 29 16 48 26 S 1003,4 27 0 1,0
19.02.2019 19:00:00 8,7 7,4 - - 34 18 54 29 S 1003,3 12 0 2,4
19.02.2019 18:00:00 8,3 6,8 - - 34 18 55 30 S 1003,6 13 0 1,2
19.02.2019 17:00:00 8,3 6,3 - - 37 20 63 34 S 1004,4 14 0 0,6
19.02.2019 16:00:00 7,9 5,9 - - 39 21 55 30 SSE 1005,3 13 0 1,6
19.02.2019 15:00:00 7,7 5,1 - - 31 17 46 25 S 1007,0 30 0 0,0
19.02.2019 14:00:00 7,3 4,9 - - 28 15 - - S 1008,1 35 0 0,2
19.02.2019 13:00:00 7,8 4,2 - - 26 14 - - S 1009,0 29 0 0,0
19.02.2019 12:00:00 7,6 4,2 - - 21 11 - - S 1009,9 45 0 0,0
19.02.2019 11:00:00 7,1 4,1 - - 26 14 - - S 1010,0 35 0 0,0
19.02.2019 10:00:00 6,3 4,3 - - 13 7 - - SSW 1010,6 35 0 0,0
19.02.2019 09:00:00 5,5 3,7 8,7 7,4 13 7 - - SSW 1010,7 29 0 0,0
19.02.2019 08:00:00 5,2 3,4 - - 15 8 - - SSW 1010,5 35 0 0,0
19.02.2019 07:00:00 5,0 3,5 - - 15 8 - - SSW 1010,3 40 0 0,0
19.02.2019 06:00:00 4,8 3,6 - - 15 8 - - SSW 1010,4 30 0 0,0
19.02.2019 05:00:00 5,4 4,1 - - 15 8 - - SSW 1010,4 24 0 0,0
19.02.2019 04:00:00 6,8 5,4 - - 21 11 - - SW 1010,6 40 0 0,0
19.02.2019 03:00:00 6,7 5,6 - - 21 11 - - SW 1010,5 45 0 0,0
19.02.2019 02:00:00 6,5 5,3 - - 15 8 - - SSW 1010,6 29 0 0,0
19.02.2019 01:00:00 6,6 5,2 - - 24 13 - - SW 1010,2 22 0 0,0
19.02.2019 00:00:00 7,1 5,5 - - 26 14 - - SW 1009,8 24 - 0,0
18.02.2019 23:00:00 7,5 5,2 - - 24 13 - - SW 1009,2 21 0 0,0
18.02.2019 22:00:00 6,3 5,0 - - 18 10 - - SSW 1008,7 29 0 0,0
18.02.2019 21:00:00 7,8 5,5 - - 18 10 - - WSW 1008,1 40 0 0,0
18.02.2019 20:00:00 7,9 6,5 - - 24 13 - - WSW 1007,3 35 0 0,2
18.02.2019 19:00:00 8,2 5,9 - - 26 14 - - WSW 1006,3 30 0 0,0
18.02.2019 18:00:00 8,3 5,8 - - 29 16 - - WSW 1005,4 30 0 0,0
18.02.2019 17:00:00 8,4 6,2 - - 28 15 - - WSW 1004,5 30 36 0,0
18.02.2019 16:00:00 8,3 5,8 - - 22 12 - - WSW 1003,7 40 24 0,0
18.02.2019 15:00:00 9,2 6,7 - - 28 15 46 25 WSW 1003,2 30 42 0,2
18.02.2019 14:00:00 7,8 5,8 - - 34 18 - - WSW 1002,6 27 6 1,0
18.02.2019 13:00:00 6,2 4,9 - - 26 14 67 36 WSW 1002,5 20 6 1,2
18.02.2019 12:00:00 8,1 6,3 - - 37 20 55 30 SW 1002,0 28 18 0,2
18.02.2019 11:00:00 8,0 6,3 - - 37 20 50 27 SW 1001,6 23 6 0,0
18.02.2019 10:00:00 7,3 4,7 - - 31 17 48 26 SSW 1001,4 35 18 0,0
18.02.2019 09:00:00 6,3 3,9 8,9 7,2 31 17 50 27 SSW 1001,2 30 0 0,0
18.02.2019 08:00:00 6,2 3,2 - - 39 21 55 30 SSW 1000,7 22 0 0,0
18.02.2019 07:00:00 6,4 2,9 - - 39 21 50 27 SSW 1000,2 19 0 0,0
18.02.2019 06:00:00 6,5 2,9 - - 34 18 46 25 SSW 1000,2 21 0 0,0
18.02.2019 05:00:00 6,0 2,8 - - 35 19 50 27 SSW 999,9 20 0 0,0
18.02.2019 04:00:00 6,3 3,0 - - 37 20 52 28 S 999,9 23 0 0,0
18.02.2019 03:00:00 6,5 3,4 - - 31 17 50 27 S 1000,2 30 0 0,0
18.02.2019 02:00:00 6,8 4,0 - - 24 13 - - SSW 1000,5 40 0 0,0
18.02.2019 01:00:00 7,1 4,0 - - 31 17 59 32 SSW 999,8 50 0 0,0
18.02.2019 00:00:00 8,3 4,1 - - 39 21 54 29 SSW 999,5 40 - 0,0
17.02.2019 23:00:00 8,1 3,9 - - 35 19 59 32 SSW 999,4 45 0 0,0
17.02.2019 22:00:00 8,6 4,2 - - 37 20 54 29 S 999,1 45 0 0,0
17.02.2019 21:00:00 8,7 4,5 - - 34 18 50 27 S 998,9 35 0 0,0
17.02.2019 20:00:00 8,6 4,7 - - 31 17 - - S 998,8 40 0 0,0
17.02.2019 19:00:00 9,5 4,8 - - 26 14 50 27 S 999,1 28 0 0,0
17.02.2019 18:00:00 9,3 4,2 - - 21 11 - - S 999,1 29 0 0,0
17.02.2019 17:00:00 10,2 3,8 - - 24 13 54 29 S 999,4 30 24 0,0
17.02.2019 16:00:00 10,4 3,2 - - 37 20 57 31 S 999,4 45 30 0,0
17.02.2019 15:00:00 10,3 4,0 - - 39 21 57 31 S 999,8 35 36 0,0
17.02.2019 14:00:00 10,9 3,6 - - 37 20 59 32 SSW 1000,3 25 60 0,0
17.02.2019 13:00:00 10,4 4,9 - - 35 19 54 29 SSW 1000,5 26 60 0,0
17.02.2019 12:00:00 9,4 5,8 - - 35 19 74 40 SSW 1000,1 30 6 -
17.02.2019 11:00:00 10,3 7,2 - - 28 15 - - SSW 999,3 40 12 -
17.02.2019 10:00:00 9,9 6,7 - - 28 15 - - S 998,9 50 6 0,0
17.02.2019 09:00:00 10,2 7,1 9,2 7,2 28 15 - - S 998,7 45 0 0,0
17.02.2019 08:00:00 10,1 7,5 - - 22 12 52 28 S 998,8 45 0 0,0
17.02.2019 07:00:00 10,4 7,8 - - 35 19 54 29 S 998,7 35 0 0,0
17.02.2019 06:00:00 10,2 7,9 - - 28 15 50 27 S 999,0 16 0 0,0
17.02.2019 05:00:00 10,8 7,5 - - 37 20 61 33 S 999,6 17 0 0,0
17.02.2019 04:00:00 10,9 7,6 - - 37 20 63 34 S 1000,1 21 0 0,0
17.02.2019 03:00:00 11,4 7,9 - - 39 21 57 31 S 1000,8 26 0 0,0
17.02.2019 02:00:00 11,8 8,1 - - 28 15 48 26 S 1002,0 35 0 0,0
17.02.2019 01:00:00 11,8 8,0 - - 22 12 50 27 S 1002,8 40 0 0,0
17.02.2019 00:00:00 8,3 4,1 - - 39 21 54 29 SSW 999,5 40 - 0,0
16.02.2019 23:00:00 11,1 8,4 - - 41 22 57 31 S 1003,8 50 0 0,0
16.02.2019 22:00:00 10,9 7,2 - - 46 25 63 34 S 1004,0 35 0 0,0
16.02.2019 21:00:00 10,6 6,3 - - 41 22 59 32 S 1004,7 29 0 0,0
16.02.2019 20:00:00 10,5 6,2 - - 29 16 46 25 S 1006,2 26 0 0,0
16.02.2019 19:00:00 10,5 5,9 - - 16 9 - - S 1007,3 28 0 0,0
16.02.2019 18:00:00 10,8 5,9 - - 16 9 - - S 1007,5 30 0 0,0
16.02.2019 17:00:00 10,6 6,0 - - 28 15 46 25 S 1007,8 40 0 0,0
16.02.2019 16:00:00 10,6 5,9 - - 34 18 48 26 S 1008,2 30 0 0,0
16.02.2019 15:00:00 10,4 5,9 - - 29 16 54 29 S 1009,1 30 0 0,0
16.02.2019 14:00:00 10,4 5,9 - - 31 17 52 28 S 1009,8 30 0 0,0
16.02.2019 13:00:00 10,0 5,4 - - 29 16 - - S 1010,6 40 0 0,0
16.02.2019 12:00:00 9,3 5,5 - - 26 14 46 25 S 1011,5 30 6 0,0
16.02.2019 11:00:00 9,4 5,6 - - 29 16 - - S 1011,9 35 42 0,0
16.02.2019 10:00:00 9,0 5,4 - - 29 16 - - S 1012,0 30 12 0,0
16.02.2019 09:00:00 8,0 5,5 8,9 7,0 24 13 - - SSW 1011,8 50 0 0,0
16.02.2019 08:00:00 8,1 6,0 - - 26 14 - - SSW 1011,3 50 0 0,0
16.02.2019 07:00:00 8,3 5,7 - - 16 9 - - SSW 1011,2 40 0 0,0
16.02.2019 06:00:00 9,2 6,1 - - 31 17 50 27 SSW 1010,5 45 0 0,0
16.02.2019 05:00:00 9,3 6,8 - - 34 18 48 26 SSW 1010,1 45 0 0,0
16.02.2019 04:00:00 9,1 6,5 - - 26 14 - - SSW 1009,9 50 0 0,0
16.02.2019 03:00:00 9,6 6,2 - - 35 19 48 26 SSW 1009,6 30 0 0,0
16.02.2019 02:00:00 10,1 6,8 - - 34 18 50 27 SSW 1010,1 50 0 0,0
16.02.2019 01:00:00 9,6 6,7 - - 28 15 46 25 SSW 1010,3 45 0 0,0

tt = temperature
td = dewpoint
tt -20cm = temperature -20cm
tt -100cm = temperature -100cm
ff = wind speed
fx = gusts
dd = wind direction
ppp = reduced air pressure
vv = visibility
sd = sunshine duration
rr = precipitation

Next stations